STARLINK-1982 (47580 NORAD) Tracking and Keplerian Element Data

This shows tracking and keplerian element data for the satellite.

Feedback or suggestion? Click here.




ElementValue
Catalog47580
NameSTARLINK-1982
Epoch Orbit176
Epoch Day59.91667824
Epoch Year2021
RAAN2.9641
Inclination53.0541
Eccentricity9.78E-05
Argument of Perigee66.2489
Mean Anonmoly272.9913
Mean Motion15.62755365
Decay Rate0.0001423
L11 47580U 21009AJ 21059.91667824 .00014230 00000-0 16096-3 0 9991
L22 47580 53.0541 2.9641 0000978 66.2489 272.9913 15.62755365 1767

Live tracking and technical data element details for STARLINK-1982 (NORAD 47580). STARLINK-1982 can be tracked NOW for your location showing map with azimuth and elevation plus other details from your city location.

Track the satellite on the map from your city or location and see movement details for azimuth, elevation, latitude, longitude, range, height, and movement on the map or in text.







IsCatalogInMostPopularTable: catalog: 47580, numindb: 4
Update: records affected: 1



GetName: 47580 STARLINK-1982

Hit Count: updated at: Mon, 01 Mar 2021 15:47:21 GMT